This demonstration page uses our WeatherBlox Daily Observations layout. Learn more.

Left ArrowRight Arrow

Hourly Observations for June 9, 2017

Temp ( °F °C ) Dew Point ( °F °C ) Humidity (%) Winds ( mph kmh ) Pressure ( in mb ) Visibility ( mi km ) Precip ( " mm )
12:59 am 00:59 Clear 57 13.9 52 11.1 83 83 Calm 29.84 1011 10 16 0.00 0.00
1:59 am 01:59 Clear 57 13.9 50 10 78 78 WSW 3 6 29.84 1011 10 16 0.00 0.00
2:59 am 02:59 Clear 58 14.4 54 12.2 87 87 SW 5 7 29.84 1010 10 16 0.00 0.00
3:59 am 03:59 Clear 57 13.9 54 12.2 90 90 SW 3 6 29.83 1010 10 16 0.00 0.00
4:59 am 04:59 Mostly Clear 58 14.4 54 12.2 87 87 SW 5 7 29.84 1011 10 16 0.00 0.00
5:59 am 05:59 Mostly Sunny 62 16.7 55 12.8 78 78 W 7 11 29.86 1011 10 16 0.00 0.00
6:59 am 06:59 Mostly Sunny 63 17.2 56 13.3 78 78 WSW 8 13 29.88 1012 10 16 0.00 0.00
7:59 am 07:59 Sunny 64 17.8 55 12.8 73 73 W 8 13 29.91 1013 10 16 0.00 0.00
8:59 am 08:59 Mostly Sunny 67 19.4 55 12.8 66 66 W 6 9 29.91 1013 10 16 0.00 0.00
9:59 am 09:59 Sunny 71 21.7 56 13.3 59 59 W 9 15 29.91 1013 10 16 0.00 0.00
10:59 am 10:59 Sunny 74 23.3 57 13.9 56 56 W 9 15 29.91 1013 10 16 0.00 0.00
11:59 am 11:59 Mostly Sunny 76 24.4 58 14.4 54 54 WNW 12 19 29.92 1013 10 16 0.00 0.00
12:59 pm 12:59 Mostly Sunny 78 25.6 58 14.4 50 50 WNW 10 17 29.90 1013 10 16 0.00 0.00
1:59 pm 13:59 Mostly Sunny 79 26.1 57 13.9 47 47 W 8 13 29.90 1012 10 16 0.00 0.00
2:59 pm 14:59 Mostly Sunny 80 26.7 55 12.8 42 42 VRB 7 11 29.90 1012 10 16 0.00 0.00
3:59 pm 15:59 Partly Cloudy 80 26.7 54 12.2 41 41 W 8 13 29.90 1013 10 16 0.00 0.00
4:59 pm 16:59 Partly Cloudy 80 26.7 52 11.1 38 38 W 8 13 29.91 1013 10 16 0.00 0.00
5:59 pm 17:59 Partly Cloudy 80 26.7 53 11.7 39 39 W 8 13 29.91 1013 10 16 0.00 0.00
6:59 pm 18:59 Partly Cloudy 79 26.1 52 11.1 39 39 WSW 6 9 29.93 1014 10 16 0.00 0.00
7:59 pm 19:59 Mostly Sunny 77 25 53 11.7 43 43 W 6 9 29.94 1014 10 16 0.00 0.00
8:59 pm 20:59 Clear 71 21.7 55 12.8 57 57 VRB 3 6 29.97 1015 10 16 0.00 0.00
9:59 pm 21:59 Clear 69 20.6 57 13.9 66 66 VRB 3 6 30.00 1016 10 16 0.00 0.00
10:59 pm 22:59 Clear 67 19.4 57 13.9 71 71 Calm 30.01 1016 10 16 0.00 0.00
11:59 pm 23:59 Clear 65 18.3 58 14.4 78 78 Calm 30.01 1016 10 16 0.00 0.00

Powered by AerisWeather